Date,TemperatureHighF,TemperatureAvgF,TemperatureLowF,DewpointHighF,DewpointAvgF,DewpointLowF,HumidityHigh,HumidityAvg,HumidityLow,PressureMaxIn,PressureMinIn,WindSpeedMaxMPH,WindSpeedAvgMPH,GustSpeedMaxMPH,PrecipitationSumIn
2013-1-1,68.5,59.5,48.7,68.0,57.5,45.0,100,93,82,30.17,29.85,24,10,24,0.08
2013-1-2,48.7,45.4,40.5,45.3,41.4,38.1,92,86,79,30.25,30.13,18,11,18,0.02
2013-1-3,47.2,47.2,47.0,38.8,38.3,38.2,73,71,71,30.37,30.35,10,6,11,0.01
2013-1-4,48.2,45.6,44.4,42.0,40.7,38.3,90,83,71,30.40,30.34,18,10,18,0.00
2013-1-5,48.2,47.4,46.7,46.9,46.3,45.5,96,96,95,30.28,30.23,10,5,10,0.00
2013-1-6,61.2,49.0,38.4,48.5,44.7,38.4,100,86,58,30.34,30.24,18,5,18,0.01
2013-1-7,59.9,50.5,38.7,54.9,48.4,37.4,100,93,78,30.29,29.99,18,7,18,0.02
2013-1-8,66.8,61.3,54.9,66.8,61.2,54.9,100,100,98,29.98,29.77,23,8,23,0.13
2013-1-9,68.0,61.8,55.8,68.0,61.5,55.8,100,99,95,30.03,29.79,23,7,23,0.88
2013-1-10,63.9,57.2,51.8,56.3,53.5,50.7,100,88,66,30.10,30.01,17,4,17,0.01
2013-1-11,71.5,63.4,50.6,69.7,62.8,50.6,100,98,91,30.03,29.81,17,6,17,0.01
2013-1-12,71.4,68.6,66.4,70.5,68.5,66.4,100,100,97,29.84,29.63,30,13,30,0.00
2013-1-13,68.8,53.1,44.7,68.8,47.0,40.3,100,81,58,30.08,29.70,28,13,28,0.03
2013-1-14,49.1,44.4,41.2,44.4,40.9,37.2,98,88,73,30.17,30.05,20,10,20,0.00
2013-1-15,44.9,42.0,40.0,44.7,41.4,37.9,100,98,91,30.20,30.02,21,11,21,0.09
2013-1-16,56.7,44.3,35.0,38.4,31.4,24.5,92,63,29,30.36,30.20,25,10,25,0.00
2013-1-17,64.9,48.1,34.8,45.5,37.8,28.9,95,70,40,30.45,30.29,20,4,20,0.00
2013-1-18,62.8,49.4,36.1,50.8,44.8,35.1,100,86,60,30.48,30.31,14,4,14,0.00
2013-1-19,67.4,56.7,46.1,56.2,51.9,46.1,100,86,61,30.31,30.15,15,4,15,0.01
2013-1-20,69.8,56.9,42.5,60.3,53.3,42.5,100,89,66,30.23,30.09,14,3,14,0.00
2013-1-21,68.7,58.2,48.4,61.1,54.9,48.4,100,90,65,30.22,30.09,12,2,12,0.01
2013-1-22,70.0,57.6,44.7,61.5,54.6,44.7,100,91,65,30.28,30.16,15,3,15,0.01
2013-1-23,72.8,60.8,49.6,66.7,59.0,49.6,100,94,79,30.32,30.21,17,5,17,0.01
2013-1-24,73.6,65.4,59.4,66.8,63.7,59.4,100,94,78,30.28,30.14,20,9,20,0.01
2013-1-25,73.7,65.9,59.9,68.1,64.1,59.9,100,95,81,30.16,30.03,21,10,21,0.02
2013-1-26,73.4,67.0,63.1,67.1,64.6,62.8,100,92,79,30.14,30.05,21,10,21,0.00
2013-1-27,72.3,67.4,63.2,70.2,66.8,62.3,100,98,92,30.08,29.96,25,11,25,0.00
2013-1-28,73.8,69.3,66.8,70.7,68.5,66.8,100,97,89,30.06,29.90,26,14,26,0.00
2013-1-29,74.7,69.4,65.8,71.0,67.5,49.2,100,94,55,29.91,29.58,33,18,33,0.00
2013-1-30,67.2,58.7,44.5,50.1,29.0,16.4,57,34,15,30.24,29.73,33,14,33,0.00
2013-1-31,65.7,53.0,37.3,50.1,39.8,23.7,90,64,21,30.32,30.20,18,4,18,0.00
2013-2-1,67.9,58.2,47.3,58.2,51.5,46.5,100,80,55,30.33,30.20,18,4,18,0.00
2013-2-2,72.4,62.4,53.4,62.1,58.5,52.9,100,88,68,30.22,30.14,14,4,14,0.00
2013-2-3,70.8,61.1,49.6,62.6,58.7,49.6,100,92,70,30.28,30.01,15,5,15,0.01
2013-2-4,72.8,66.5,60.9,67.8,64.3,59.9,100,93,83,30.01,29.79,20,8,20,0.00
2013-2-5,80.0,67.6,61.1,70.9,66.0,61.1,100,95,70,29.95,29.84,15,6,15,0.01
2013-2-6,68.2,65.2,61.9,68.2,64.9,61.1,100,99,95,29.99,29.80,23,9,23,0.85
2013-2-7,72.5,65.7,60.6,69.5,65.0,60.4,100,98,89,29.98,29.86,12,3,12,0.00
2013-2-8,71.0,61.8,55.6,61.7,56.6,51.8,100,85,52,30.18,29.97,19,8,19,0.00
2013-2-9,70.0,66.0,60.2,68.6,65.0,59.1,100,97,93,30.06,29.78,22,10,22,0.01
2013-2-10,80.8,68.9,64.5,72.3,63.7,53.3,100,85,62,29.91,29.73,24,10,24,0.00
2013-2-11,64.4,60.9,56.9,60.8,57.5,53.9,100,89,73,29.97,29.86,22,12,22,0.00
2013-2-12,68.0,60.3,57.3,62.6,59.0,56.7,100,96,77,29.97,29.80,18,6,18,0.01
2013-2-13,61.3,54.2,45.6,57.4,47.4,42.1,100,79,54,30.16,29.96,22,7,22,0.00
2013-2-14,63.4,53.5,40.0,53.0,46.3,39.7,100,79,51,30.13,30.03,14,4,14,0.00
2013-2-15,67.5,57.7,45.0,59.0,50.7,44.7,100,79,52,30.30,30.03,24,6,24,0.00
2013-2-16,62.5,52.9,40.0,46.1,38.8,29.8,81,60,35,30.46,30.25,20,8,20,0.00
2013-2-17,67.5,59.7,46.0,60.0,52.8,43.8,95,79,60,30.25,29.99,24,9,24,0.00
2013-2-18,73.2,67.3,64.3,67.2,64.0,60.0,97,89,79,30.00,29.84,28,13,28,0.00
2013-2-19,65.0,61.6,59.1,64.0,53.7,44.4,100,76,56,30.19,29.97,25,14,25,0.00
2013-2-20,71.1,66.7,62.0,68.7,64.9,58.2,99,94,87,30.00,29.67,23,12,23,0.00
2013-2-21,80.4,70.7,66.2,72.1,64.7,52.5,100,83,54,29.80,29.58,28,11,28,0.00
2013-2-22,69.3,64.3,58.6,58.2,51.6,44.5,91,65,44,29.91,29.78,24,10,24,0.00
2013-2-23,70.0,57.7,50.5,55.4,49.0,44.3,99,74,57,30.00,29.86,21,9,21,0.00
2013-2-24,65.8,57.9,45.1,64.7,57.4,44.6,100,98,91,29.90,29.59,14,4,14,0.02
2013-2-25,71.5,64.7,52.1,67.6,44.4,21.9,100,57,16,29.87,29.51,43,17,43,0.00
2013-2-26,72.6,55.7,41.3,52.5,38.1,28.9,90,55,20,29.99,29.84,20,7,20,0.00
2013-2-27,74.8,59.9,47.5,60.7,48.2,35.6,100,70,26,30.17,29.86,23,6,23,0.00
2013-2-28,59.7,51.1,42.6,39.5,34.7,29.0,80,55,34,30.29,30.16,24,8,24,0.00
2013-3-1,67.3,54.5,40.3,51.2,39.3,29.3,88,59,28,30.27,30.12,19,4,19,0.00
2013-3-2,64.6,52.7,41.2,45.6,36.6,29.0,95,59,28,30.39,30.22,30,8,30,0.00
2013-3-3,66.5,55.5,37.6,56.6,47.1,34.4,91,75,54,30.27,29.99,26,9,26,0.00
2013-3-4,73.3,66.1,61.3,63.6,61.0,56.4,96,84,70,29.99,29.75,30,18,30,0.00
2013-3-5,68.4,61.7,48.7,63.7,47.5,29.7,97,64,27,30.30,29.79,28,13,28,0.00
2013-3-6,59.2,50.9,35.3,47.8,39.0,28.0,92,65,47,30.42,30.22,21,6,21,0.00
2013-3-7,71.0,59.9,44.8,62.3,55.9,43.3,100,88,73,30.22,30.10,23,8,23,0.00
2013-3-8,73.1,67.3,64.0,68.3,64.9,62.1,98,92,83,30.11,30.00,22,10,22,0.00
2013-3-9,73.3,68.2,66.3,68.6,66.4,64.9,98,94,85,30.00,29.65,30,14,30,0.00
2013-3-10,75.1,67.0,57.1,68.2,55.8,40.0,100,72,30,30.06,29.59,30,12,30,0.08
2013-3-11,70.5,58.3,45.4,45.0,37.2,29.0,82,50,22,30.15,29.99,28,8,28,0.00
2013-3-12,69.6,58.9,44.3,55.2,48.4,42.0,95,70,46,30.21,30.05,14,4,14,0.00
2013-3-13,68.7,60.2,47.2,58.9,53.4,46.8,100,80,51,30.39,30.20,20,6,20,0.00
2013-3-14,71.7,62.7,48.8,62.4,57.2,48.3,100,83,67,30.37,30.25,20,6,20,0.00
2013-3-15,72.8,65.6,59.7,64.1,61.4,58.4,98,87,73,30.26,30.04,29,9,29,0.00
2013-3-16,74.2,68.0,63.8,66.9,64.5,61.8,97,89,76,30.05,29.80,28,11,28,0.00
2013-3-17,75.8,69.8,65.3,70.3,67.5,64.7,100,93,82,29.84,29.66,24,10,24,0.00
2013-3-18,77.0,70.4,67.0,70.0,67.9,65.9,100,92,78,29.86,29.70,20,7,20,0.00
2013-3-19,77.0,68.3,60.0,70.6,66.4,58.3,100,94,77,29.96,29.81,17,8,17,0.01
2013-3-20,73.3,67.3,61.7,67.7,59.9,51.5,99,78,58,30.13,29.87,30,13,30,0.00
2013-3-21,72.5,67.4,62.0,67.1,63.2,57.7,96,87,75,30.03,29.67,20,8,20,0.00
2013-3-22,76.0,70.9,68.2,72.8,69.7,67.1,100,96,88,29.72,29.61,22,8,22,0.00
2013-3-23,78.6,70.7,65.5,72.9,69.0,65.2,100,95,75,29.68,29.56,14,5,14,0.00
2013-3-24,66.9,62.0,52.3,66.0,44.7,26.9,100,60,23,30.11,29.63,30,12,30,0.01
2013-3-25,59.9,52.1,44.0,38.1,32.8,14.3,73,50,18,30.33,30.11,20,8,20,0.00
2013-3-26,62.2,54.8,44.1,41.4,36.7,32.9,73,52,35,30.44,30.31,20,7,20,0.00
2013-3-27,64.6,62.4,55.0,59.2,54.5,41.0,86,76,58,30.33,30.17,15,7,15,0.00
2013-3-28,70.8,66.3,62.8,63.7,62.0,59.2,93,86,77,30.20,30.12,17,6,17,0.00
2013-3-29,75.0,68.2,61.2,66.9,64.4,60.8,100,88,73,30.16,30.05,23,7,23,0.00
2013-3-30,77.2,69.2,64.0,70.9,66.9,63.6,100,93,81,30.09,29.92,21,7,21,0.00
2013-3-31,76.2,70.5,66.7,71.8,68.7,66.7,100,94,84,29.96,29.78,21,9,21,0.00
2013-4-1,75.7,69.9,66.8,70.1,68.4,66.7,100,95,83,30.01,29.88,20,8,20,0.01
2013-4-2,76.8,71.0,68.2,72.7,70.0,68.2,100,97,86,29.98,29.76,17,7,17,0.02
2013-4-3,73.5,65.3,55.5,69.7,61.5,52.7,100,88,72,30.09,29.77,23,10,23,0.00
2013-4-4,73.1,60.4,53.4,52.7,50.5,47.2,94,73,43,30.16,30.03,22,9,22,0.00
2013-4-5,65.0,56.5,44.3,57.5,50.6,42.1,92,81,66,30.25,30.08,15,6,15,0.00
2013-4-6,74.5,67.4,60.1,64.8,62.1,57.3,92,84,70,30.08,29.88,23,8,23,0.00
2013-4-7,76.3,70.0,65.1,67.7,66.0,63.7,97,88,74,29.92,29.80,23,8,23,0.00
2013-4-8,76.2,71.4,67.7,71.9,69.5,67.2,99,94,84,29.82,29.66,24,10,24,0.00
2013-4-9,78.0,73.1,69.0,73.5,71.0,68.2,99,94,83,29.72,29.57,29,12,29,0.00
2013-4-10,79.0,67.2,57.0,74.9,64.8,51.1,100,92,71,29.82,29.60,28,12,28,0.00
2013-4-11,71.3,57.6,46.2,54.1,48.4,43.1,98,73,45,29.94,29.77,24,9,24,0.51
2013-4-12,71.0,61.6,48.4,63.2,57.5,48.1,100,87,72,29.95,29.85,21,6,21,0.00
2013-4-13,73.4,67.7,60.8,66.6,63.5,60.0,100,87,72,29.93,29.73,23,8,23,0.01
2013-4-14,79.1,71.0,64.0,72.9,68.8,63.4,100,93,81,29.77,29.65,19,6,19,0.00
2013-4-15,80.8,74.0,69.3,73.8,71.3,68.7,100,92,77,29.80,29.68,24,11,24,0.01
2013-4-16,76.7,73.3,71.5,73.3,71.9,69.5,100,96,88,29.86,29.75,18,9,18,0.00
2013-4-17,78.2,74.0,71.8,75.1,73.2,71.7,100,97,90,29.86,29.64,24,9,24,0.00
2013-4-18,77.8,67.1,57.4,75.5,64.6,49.7,100,92,71,30.03,29.60,34,11,34,0.04
2013-4-19,69.8,57.6,48.2,50.1,43.0,33.2,86,60,32,30.29,30.03,24,8,24,0.00
2013-4-20,69.3,58.5,40.9,57.6,48.7,39.0,96,72,47,30.20,30.02,18,6,18,0.00
2013-4-21,75.1,68.2,61.4,65.2,61.8,57.1,94,81,64,30.09,30.00,16,7,16,0.00
2013-4-22,77.3,70.5,65.1,69.5,66.8,64.0,98,89,72,30.07,29.91,17,7,17,0.00
2013-4-23,77.4,72.1,68.0,72.5,70.1,67.7,100,94,83,29.93,29.82,21,8,21,0.00
2013-4-24,72.2,56.8,49.0,71.8,53.5,47.4,100,89,77,30.17,29.93,28,9,28,0.06
2013-4-25,66.5,62.0,59.9,66.4,57.7,52.6,100,87,72,30.25,30.12,21,7,21,0.08
2013-4-26,78.5,71.8,66.5,74.1,70.5,66.5,100,96,86,30.15,30.02,20,8,20,0.00
2013-4-27,78.6,73.4,70.3,74.2,71.8,70.3,100,95,83,30.06,29.91,18,7,18,0.00
2013-4-28,74.5,70.0,64.2,72.0,68.8,63.9,100,96,90,30.02,29.83,22,7,22,0.21
2013-4-29,79.2,72.2,67.5,73.7,70.8,67.5,100,96,78,29.92,29.76,16,5,16,0.23
2013-4-30,79.2,71.8,63.7,73.4,69.7,63.7,100,94,80,29.81,29.70,23,6,23,0.05
2013-5-1,80.8,73.9,68.9,75.0,72.0,68.9,100,94,78,29.88,29.73,16,5,16,0.00
2013-5-2,80.0,67.4,53.0,71.3,61.3,44.8,100,81,64,30.24,29.77,30,12,30,0.00
2013-5-3,69.5,58.3,49.4,44.8,37.6,33.0,75,48,28,30.28,30.07,32,14,32,0.00
2013-5-4,75.8,62.5,46.8,57.2,49.1,40.0,92,64,35,30.09,29.89,14,4,14,0.00
2013-5-5,80.8,68.5,58.6,61.0,58.2,52.1,92,72,38,30.06,29.93,16,5,16,0.00
2013-5-6,79.1,66.0,51.4,64.0,58.7,50.9,100,79,52,30.10,29.95,9,1,9,0.00
2013-5-7,80.3,68.9,53.9,68.1,63.1,53.3,100,83,64,30.06,29.94,10,2,10,0.00
2013-5-8,78.3,73.2,68.6,71.2,69.3,67.4,97,88,72,30.01,29.90,21,9,21,0.03
2013-5-9,77.8,74.6,72.1,75.0,73.3,70.9,100,96,90,29.94,29.79,21,10,21,0.00
2013-5-10,75.6,73.4,68.4,75.6,72.6,67.2,100,97,92,29.93,29.80,18,7,18,0.04
2013-5-11,83.3,74.3,67.6,71.6,69.4,66.7,100,86,60,30.06,29.92,20,7,20,0.16
2013-5-12,75.2,69.9,65.7,72.5,65.4,60.8,100,86,76,30.16,30.02,15,6,15,0.19
2013-5-13,78.8,72.0,60.2,74.4,67.8,60.2,100,87,66,30.24,30.13,56,22,56,0.00
2013-5-14,79.8,74.0,69.1,73.4,70.4,66.2,94,89,78,30.20,30.04,23,10,23,0.00
2013-5-15,77.9,74.1,72.0,75.0,72.8,71.4,100,96,89,30.09,29.88,30,14,30,0.19
2013-5-16,80.8,76.0,73.0,76.6,73.7,71.2,99,93,86,29.89,29.73,30,15,30,0.00
2013-5-17,81.8,77.0,73.6,76.7,74.6,72.8,99,92,77,29.89,29.77,25,13,25,0.00
2013-5-18,83.0,77.6,75.2,76.5,75.2,74.2,99,92,77,29.91,29.82,29,14,29,0.00
2013-5-19,82.3,77.8,75.6,77.1,75.4,74.4,97,92,84,29.87,29.74,25,15,25,0.00
2013-5-20,82.2,78.0,75.3,77.5,75.7,74.5,98,93,84,29.83,29.71,23,13,23,0.00
2013-5-21,83.0,78.6,76.0,77.4,76.3,75.4,99,93,82,29.79,29.68,23,11,23,0.00
2013-5-22,84.7,79.3,76.3,77.8,76.6,75.2,100,92,75,29.87,29.76,17,7,17,0.00
2013-5-23,83.5,79.0,76.1,78.9,76.9,75.5,99,93,85,29.97,29.83,18,9,18,0.00
2013-5-24,83.3,79.3,77.3,77.6,76.6,75.6,98,92,82,30.07,29.94,20,10,20,0.00
2013-5-25,82.3,78.8,76.9,77.9,76.4,74.7,96,92,85,30.08,29.99,22,12,22,0.00
2013-5-26,83.7,79.2,76.3,75.6,74.4,73.1,94,86,73,30.06,29.95,22,12,22,0.00
2013-5-27,84.4,79.5,76.7,77.1,75.5,73.7,95,88,77,30.00,29.86,25,14,25,0.00
2013-5-28,83.7,79.7,77.5,77.8,76.1,74.7,94,89,81,29.90,29.78,29,17,29,0.00
2013-5-29,82.5,79.4,77.9,78.3,76.6,75.3,94,91,85,29.83,29.71,30,16,30,0.00
2013-5-30,85.3,80.7,77.9,79.3,77.5,75.8,96,90,82,29.82,29.73,25,14,25,0.00
2013-5-31,86.6,81.3,78.2,79.7,78.0,76.7,96,90,79,29.86,29.77,23,13,23,0.00
2013-6-1,86.6,81.9,79.2,79.3,77.7,76.4,94,87,77,29.87,29.77,25,14,25,0.00
2013-6-2,84.3,79.7,71.4,79.1,76.0,70.2,99,89,76,30.00,29.84,21,6,21,0.83
2013-6-3,85.0,78.2,69.7,76.3,73.5,69.7,100,86,71,29.93,29.81,15,5,15,0.00
2013-6-4,86.3,78.6,69.4,75.2,72.7,68.7,100,83,67,29.87,29.79,14,4,14,0.00
2013-6-5,87.4,81.4,75.7,77.8,75.4,73.4,95,83,66,29.84,29.76,17,7,17,0.00
2013-6-6,89.1,81.7,74.1,79.0,76.9,73.2,99,86,71,29.83,29.72,17,6,17,0.00
2013-6-7,85.8,77.8,68.7,77.9,74.2,67.8,100,89,72,29.91,29.81,25,6,25,0.59
2013-6-8,86.1,78.1,68.5,78.8,74.7,68.5,100,90,71,29.89,29.77,17,5,17,0.00
2013-6-9,88.8,82.6,78.6,80.1,77.6,74.2,98,85,65,29.91,29.79,21,9,21,0.09
2013-6-10,88.1,82.3,75.6,79.8,77.2,74.8,99,85,69,29.94,29.89,18,6,18,0.00
2013-6-11,87.8,82.4,78.4,80.1,77.4,74.3,92,85,74,30.00,29.92,18,8,18,0.00
2013-6-12,87.0,81.8,73.0,80.9,77.9,71.2,100,88,77,30.02,29.94,18,9,18,0.15
2013-6-13,87.7,82.7,80.6,80.5,78.6,77.2,93,88,76,30.02,29.89,18,8,18,0.00
2013-6-14,87.3,82.5,80.4,80.9,78.8,77.5,95,89,80,29.95,29.85,18,8,18,0.01
2013-6-15,88.3,83.6,80.3,79.3,77.8,75.8,93,83,68,29.95,29.86,19,10,19,0.00
2013-6-16,88.1,83.0,79.7,80.6,78.3,76.5,92,86,78,29.98,29.90,22,11,22,0.00
2013-6-17,88.5,83.3,80.4,80.9,78.6,77.0,93,86,74,29.96,29.85,21,12,21,0.00
2013-6-18,88.2,83.0,78.5,79.3,77.6,75.8,93,84,70,29.95,29.85,20,10,20,0.00
2013-6-19,88.6,83.1,79.4,79.0,77.4,76.2,91,83,70,29.98,29.88,23,10,23,0.00
2013-6-20,88.6,83.2,79.3,79.8,78.3,77.1,94,86,73,30.02,29.92,21,10,21,0.00
2013-6-21,88.2,83.2,79.3,79.4,78.1,76.8,93,85,73,30.05,29.97,17,9,17,0.00
2013-6-22,88.6,83.1,79.2,79.6,77.8,75.5,94,85,67,30.02,29.91,20,10,20,0.00
2013-6-23,87.8,82.8,78.7,79.0,77.5,76.2,93,84,72,29.97,29.88,25,11,25,0.00
2013-6-24,87.6,83.1,79.8,79.8,78.3,76.7,93,86,75,30.01,29.91,26,13,26,0.00
2013-6-25,88.3,82.7,79.1,80.0,78.2,77.0,94,87,75,29.99,29.89,25,13,25,0.00
2013-6-26,88.2,82.6,79.2,80.5,78.6,77.3,95,88,74,29.95,29.88,28,12,28,0.00
2013-6-27,88.5,82.5,78.0,78.8,77.5,75.7,95,85,70,29.99,29.90,21,9,21,0.00
2013-6-28,89.7,83.3,78.4,78.8,77.4,75.9,95,83,67,29.96,29.82,20,8,20,0.00
2013-6-29,95.0,84.5,77.8,80.2,77.1,75.0,94,79,54,29.85,29.70,18,9,18,0.00
2013-6-30,87.9,79.3,70.1,77.5,73.4,69.0,99,83,64,29.92,29.74,25,6,25,0.66
2013-7-1,91.7,81.5,73.3,76.3,71.9,65.7,95,75,48,29.94,29.82,15,5,15,0.00
2013-7-2,90.3,80.6,74.1,74.9,71.1,65.1,98,75,45,30.00,29.90,16,4,16,0.01
2013-7-3,92.5,80.8,75.1,75.1,72.5,64.0,90,77,42,29.99,29.88,18,5,18,0.00
2013-7-4,87.3,80.4,70.5,76.7,74.1,69.8,99,82,66,29.95,29.86,18,5,18,0.00
2013-7-5,88.5,81.1,71.1,77.6,75.1,70.5,100,83,65,29.93,29.82,16,5,16,0.00
2013-7-6,88.3,81.4,73.5,78.9,76.5,72.3,99,86,72,29.88,29.81,18,7,18,0.00
2013-7-7,88.0,82.0,77.8,79.3,76.7,74.2,95,84,68,29.96,29.84,23,8,23,0.00
2013-7-8,88.5,83.1,79.7,79.5,77.9,76.0,93,85,72,30.08,29.95,22,11,22,0.00
2013-7-9,89.0,83.5,78.1,79.5,78.2,76.7,97,85,72,30.09,30.00,19,8,19,0.00
2013-7-10,88.7,83.5,78.0,79.6,77.6,76.2,96,83,70,30.05,29.93,20,8,20,0.00
2013-7-11,89.3,83.5,78.6,78.3,76.9,75.0,92,81,65,29.98,29.88,20,8,20,0.00
2013-7-12,89.8,83.3,79.0,78.2,76.3,74.0,91,80,63,29.93,29.87,20,8,20,0.00
2013-7-13,91.2,83.1,74.7,78.3,75.4,72.7,97,79,59,29.94,29.84,16,6,16,0.00
2013-7-14,88.5,83.2,79.2,78.4,76.7,75.3,91,81,68,29.91,29.81,21,10,21,0.00
2013-7-15,88.7,83.5,80.6,78.5,76.9,74.8,87,81,69,29.95,29.84,20,11,20,0.00
2013-7-16,88.0,81.9,78.4,78.0,76.4,73.4,94,84,69,30.03,29.91,23,10,23,0.04
2013-7-17,80.4,76.5,73.1,78.1,74.8,71.9,100,95,84,30.11,30.01,18,4,18,1.22
2013-7-18,85.4,78.4,71.3,79.7,75.5,70.9,100,91,77,30.09,29.94,15,4,15,0.39
2013-7-19,88.0,82.0,74.6,79.1,76.6,74.2,100,84,67,30.02,29.89,16,6,16,0.00
2013-7-20,87.0,82.2,76.3,79.0,76.9,74.4,96,84,74,29.96,29.84,17,7,17,0.00
2013-7-21,88.0,83.4,80.2,80.7,78.9,77.5,93,87,75,29.94,29.86,23,11,23,0.03
2013-7-22,88.0,84.2,81.4,80.7,79.5,78.2,92,86,76,29.98,29.89,28,14,28,0.00
2013-7-23,88.5,83.6,80.9,80.2,78.0,76.1,90,83,74,30.00,29.89,25,14,25,0.00
2013-7-24,88.2,83.3,80.2,79.6,77.9,76.5,91,84,74,29.96,29.86,20,11,20,0.00
2013-7-25,89.3,83.6,79.4,80.6,78.4,76.1,93,85,74,30.00,29.94,21,9,21,0.00
2013-7-26,88.5,83.4,80.1,80.9,78.6,76.8,92,86,77,30.01,29.89,23,12,23,0.00
2013-7-27,88.6,83.2,80.1,80.3,78.6,77.5,94,86,74,29.94,29.80,24,12,24,0.00
2013-7-28,87.7,83.2,79.6,79.9,78.8,77.7,95,87,76,29.92,29.85,28,13,28,0.00
2013-7-29,88.2,83.1,79.7,79.3,78.2,77.5,94,86,74,30.03,29.91,26,14,26,0.00
2013-7-30,88.1,82.8,79.2,80.3,78.6,77.1,96,87,75,30.08,29.99,24,12,24,0.00
2013-7-31,88.4,82.7,77.8,79.8,77.8,75.6,93,86,73,30.07,29.94,18,8,18,0.00
2013-8-1,90.0,83.6,79.3,78.7,77.4,73.5,94,83,60,30.00,29.90,18,8,18,0.00
2013-8-2,89.4,83.4,79.3,78.6,77.6,75.5,94,83,65,29.96,29.88,18,8,18,0.00
2013-8-3,89.3,83.7,79.3,80.2,78.5,74.9,96,85,72,30.00,29.93,21,10,21,0.00
2013-8-4,89.5,84.1,80.5,80.9,78.9,76.7,94,85,73,30.03,29.94,24,11,24,0.00
2013-8-5,89.1,83.8,80.6,80.2,78.8,77.8,93,85,72,30.01,29.90,25,12,25,0.00
2013-8-6,89.0,83.7,80.5,80.5,79.1,78.2,95,86,75,29.94,29.83,26,14,26,0.00
2013-8-7,89.8,83.5,79.5,80.4,78.8,77.7,95,86,73,29.91,29.82,26,14,26,0.00
2013-8-8,88.3,83.0,79.2,80.5,78.7,77.1,95,87,74,29.90,29.80,23,11,23,0.00
2013-8-9,91.1,83.3,77.9,80.3,78.0,76.3,96,85,68,29.94,29.84,17,6,17,0.00
2013-8-10,90.5,82.7,75.4,81.5,78.4,75.1,100,88,65,29.98,29.91,17,5,17,0.00
2013-8-11,91.0,83.0,75.8,80.0,77.4,74.6,100,84,65,30.01,29.94,23,6,23,0.00
2013-8-12,90.1,83.6,77.4,79.5,77.6,75.2,95,83,64,30.05,29.94,18,7,18,0.00
2013-8-13,90.8,84.5,79.9,79.8,78.7,77.0,93,83,67,30.02,29.88,20,10,20,0.00
2013-8-14,92.2,84.1,80.4,80.1,77.6,71.2,92,82,56,29.97,29.86,20,10,20,0.00
2013-8-15,91.0,83.7,79.1,79.0,77.4,75.4,93,82,64,29.96,29.87,19,8,19,0.00
2013-8-16,91.7,84.0,76.4,79.9,77.8,73.5,93,82,64,29.97,29.85,23,6,23,0.00
2013-8-17,90.5,81.6,73.7,78.3,74.5,72.0,97,80,61,29.97,29.88,20,7,20,0.00
2013-8-18,90.3,81.8,71.4,76.4,72.6,66.6,96,75,51,29.99,29.92,17,5,17,0.00
2013-8-19,89.6,80.4,69.9,77.7,73.7,68.2,97,81,62,30.00,29.89,18,6,18,0.00
2013-8-20,82.5,78.1,72.9,76.7,74.9,71.9,99,90,79,30.00,29.90,17,4,17,0.43
2013-8-21,88.8,82.7,73.7,79.8,77.6,72.0,98,85,71,30.02,29.95,17,6,17,0.07
2013-8-22,89.2,81.8,75.7,79.6,77.3,75.2,99,87,68,30.02,29.90,14,4,14,0.05
2013-8-23,89.8,82.8,76.2,79.1,77.1,75.2,98,84,64,29.97,29.86,17,5,17,0.00
2013-8-24,89.5,82.5,74.5,80.0,77.5,73.6,99,86,69,29.98,29.90,20,7,20,0.00
2013-8-25,89.7,82.2,74.8,79.9,77.0,73.8,99,85,67,30.02,29.94,18,6,18,0.00
2013-8-26,81.3,76.6,72.8,77.4,75.4,72.0,100,96,87,30.06,29.96,14,3,14,2.83
2013-8-27,88.0,82.8,76.4,80.4,78.1,75.2,97,86,71,30.05,29.96,17,7,17,0.00
2013-8-28,88.8,81.7,74.6,78.9,76.5,73.8,99,85,68,30.05,29.97,16,4,16,0.00
2013-8-29,92.4,83.3,75.4,79.6,76.7,74.5,98,82,62,30.04,29.94,15,4,15,0.00
2013-8-30,91.4,83.5,78.3,79.2,76.5,72.7,93,80,56,30.00,29.89,15,5,15,0.00
2013-8-31,89.8,82.9,78.3,78.3,76.1,74.2,90,81,66,29.93,29.82,18,6,18,0.00
2013-9-1,89.3,83.8,78.2,79.9,77.6,75.4,93,82,67,29.90,29.81,20,8,20,0.00
2013-9-2,90.0,84.1,80.2,80.4,77.9,73.7,91,82,65,29.93,29.83,21,7,21,0.00
2013-9-3,89.7,82.6,75.9,79.7,76.9,74.1,97,83,69,29.98,29.87,17,4,17,0.00
2013-9-4,90.5,83.0,75.4,78.8,76.5,73.9,96,81,61,30.01,29.91,15,5,15,0.00
2013-9-5,88.7,83.0,76.5,79.7,77.0,74.6,95,83,71,30.02,29.95,17,5,17,0.00
2013-9-6,88.3,80.5,73.9,79.7,76.2,72.4,97,87,72,30.04,29.92,14,4,14,0.06
2013-9-7,87.2,79.9,74.1,79.7,76.2,73.5,99,89,74,29.99,29.88,15,4,15,0.74
2013-9-8,83.4,78.0,71.6,77.9,74.8,70.0,97,90,81,29.96,29.85,18,3,18,0.77
2013-9-9,86.7,79.9,75.9,79.0,75.5,72.6,94,87,74,29.93,29.85,18,8,18,0.10
2013-9-10,87.2,81.7,78.3,79.1,76.6,74.7,92,85,75,29.99,29.89,18,7,18,0.07
2013-9-11,87.6,80.9,74.8,80.0,76.4,72.3,96,87,74,30.02,29.93,17,5,17,0.32
2013-9-12,87.5,80.8,73.3,79.3,75.9,69.5,96,85,71,29.99,29.87,20,5,20,0.07
2013-9-13,86.8,80.4,72.2,78.5,75.4,70.4,97,85,73,29.91,29.78,18,6,18,0.09
2013-9-14,87.7,81.8,73.8,78.7,76.2,72.4,97,84,71,29.86,29.78,20,7,20,0.00
2013-9-15,87.0,82.1,78.0,79.7,77.2,74.0,93,85,76,29.91,29.81,28,10,28,0.22
2013-9-16,85.8,80.6,76.1,79.8,77.0,72.7,95,89,81,29.94,29.85,26,9,26,0.48
2013-9-17,87.3,81.7,78.4,80.6,77.7,74.8,95,88,76,29.97,29.88,18,6,18,0.25
2013-9-18,85.8,81.5,78.4,79.4,77.3,75.8,93,87,79,29.95,29.85,18,6,18,0.01
2013-9-19,88.2,82.7,77.1,80.7,77.9,75.2,95,86,77,29.88,29.78,18,6,18,0.00
2013-9-20,88.0,82.2,74.0,81.0,78.4,72.7,96,88,80,29.81,29.67,23,9,23,1.82
2013-9-21,76.9,74.0,71.9,73.9,71.4,68.8,98,91,82,29.80,29.69,23,9,23,0.35
2013-9-22,84.4,75.0,66.4,69.8,66.5,62.1,95,77,48,29.81,29.71,17,5,17,0.00
2013-9-23,84.4,75.3,65.8,76.5,71.0,64.5,96,87,74,29.78,29.70,15,4,15,0.00
2013-9-24,92.4,80.7,69.8,76.5,73.3,68.2,95,80,52,29.86,29.77,13,3,13,0.00
2013-9-25,92.3,81.0,71.5,76.6,72.5,62.8,95,78,40,29.86,29.77,12,3,12,0.01
2013-9-26,87.8,80.9,73.4,79.6,75.5,71.7,96,84,70,29.85,29.78,17,5,17,0.00
2013-9-27,87.0,83.0,80.0,80.8,78.6,76.0,91,87,80,29.88,29.80,21,11,21,0.00
2013-9-28,87.8,83.4,80.8,81.1,78.5,76.2,91,86,78,29.93,29.83,22,11,22,0.00
2013-9-29,87.8,80.0,73.7,78.2,75.8,72.5,97,87,71,29.97,29.85,15,4,15,0.65
2013-9-30,85.3,78.2,71.1,78.5,75.1,70.5,98,91,79,29.90,29.77,14,4,14,0.01
2013-10-1,85.0,80.5,77.2,81.2,76.8,74.2,94,89,81,29.88,29.79,17,7,17,0.15
2013-10-2,87.1,82.0,77.5,79.2,76.6,74.3,91,84,74,29.91,29.83,16,7,16,0.00
2013-10-3,85.8,81.0,75.7,77.5,75.4,73.0,93,84,74,29.91,29.83,16,7,16,0.05
2013-10-4,86.0,81.4,79.0,78.7,75.9,74.0,89,84,77,29.89,29.83,19,9,19,0.00
2013-10-5,87.0,80.9,74.5,78.8,76.0,72.4,95,85,74,29.90,29.82,15,4,15,0.00
2013-10-6,78.7,66.7,55.8,75.8,58.6,51.8,96,77,43,30.09,29.90,26,8,26,0.38
2013-10-7,82.3,66.7,52.4,59.7,53.8,46.2,91,68,32,30.13,30.02,15,3,15,0.00
2013-10-8,81.0,67.1,53.7,64.5,59.3,52.0,95,78,49,30.06,29.96,14,2,14,0.01
2013-10-9,82.7,74.6,62.5,69.8,66.3,59.6,92,76,60,30.02,29.93,14,4,14,0.00
2013-10-10,84.0,78.5,73.0,74.3,71.3,67.6,86,79,69,29.99,29.88,17,7,17,0.00
2013-10-11,86.2,80.8,77.8,79.4,76.4,72.8,93,87,80,29.90,29.80,21,11,21,0.00
2013-10-12,86.2,81.6,79.0,80.4,78.2,77.0,94,89,81,29.97,29.86,23,9,23,0.00
2013-10-13,83.0,79.1,74.2,78.5,76.2,72.0,96,91,83,30.08,29.96,17,6,17,0.65
2013-10-14,83.6,79.4,76.2,76.8,74.5,72.2,95,85,74,30.03,29.90,18,9,18,0.10
2013-10-15,84.2,79.8,77.2,76.1,73.9,72.7,88,82,74,29.94,29.83,17,8,17,0.00
2013-10-16,78.3,73.0,63.5,75.4,68.8,60.5,93,87,79,30.01,29.85,15,6,15,0.00
2013-10-17,77.2,67.9,63.0,65.5,61.4,57.2,91,80,64,30.06,29.92,16,6,16,0.00
2013-10-18,78.8,72.8,67.3,74.8,70.3,63.1,97,92,86,29.96,29.78,16,5,16,0.65
2013-10-19,72.5,64.9,54.1,71.1,59.1,50.6,96,83,54,30.10,29.86,23,9,23,0.01
2013-10-20,75.5,62.5,49.1,67.8,58.3,47.3,96,87,75,30.06,29.89,10,3,10,0.00
2013-10-21,79.5,72.2,64.7,74.6,69.5,62.6,97,91,82,29.93,29.82,20,3,20,0.45
2013-10-22,78.8,67.1,54.3,68.3,61.1,51.3,98,83,53,30.09,29.93,18,6,18,0.01
2013-10-23,79.3,63.2,49.4,61.4,52.6,47.1,94,73,35,30.16,30.07,14,2,14,0.00
2013-10-24,79.3,66.4,54.3,66.6,60.4,52.9,95,83,56,30.18,30.09,13,3,13,0.01
2013-10-25,78.7,70.1,58.8,72.3,65.5,57.3,97,86,72,30.25,30.15,17,5,17,0.01
2013-10-26,81.0,75.6,70.5,71.8,69.5,66.7,90,81,70,30.17,30.04,19,7,19,0.00
2013-10-27,82.8,74.1,66.3,73.2,69.9,64.7,97,87,69,30.06,29.95,16,3,16,0.00
2013-10-28,81.0,76.0,71.3,74.6,72.0,69.7,96,87,77,30.05,29.96,21,8,21,0.01
2013-10-29,82.0,77.9,74.7,75.7,73.4,71.7,92,86,79,30.06,29.95,22,10,22,0.00
2013-10-30,82.5,78.7,76.3,78.1,75.9,74.4,95,91,86,29.99,29.81,23,13,23,0.00
2013-10-31,86.9,78.9,73.0,78.7,75.1,70.1,96,88,62,29.86,29.75,20,6,20,1.03
2013-11-1,80.9,74.2,65.0,73.2,69.5,62.6,94,86,75,29.97,29.80,15,4,15,0.00
2013-11-2,76.3,66.1,58.8,66.5,49.4,40.9,94,57,29,30.22,29.97,23,8,23,0.00
2013-11-3,74.2,63.5,48.9,59.5,54.4,46.0,92,74,57,30.19,30.00,15,4,15,0.00
2013-11-4,76.0,68.5,58.3,69.7,64.6,55.8,94,87,73,30.02,29.90,13,3,13,0.00
2013-11-5,80.7,74.0,65.6,74.8,70.7,64.1,97,90,82,29.97,29.89,25,7,25,0.00
2013-11-6,83.8,72.6,57.2,75.4,68.6,52.7,96,88,71,30.21,29.93,22,7,22,0.09
2013-11-7,67.2,58.8,53.5,52.9,46.9,39.3,85,66,40,30.37,30.20,22,9,22,0.03
2013-11-8,68.0,59.4,50.7,58.7,53.3,46.6,93,80,69,30.32,30.12,16,6,16,0.00
2013-11-9,74.3,64.9,54.6,67.0,61.2,53.2,96,88,74,30.13,30.07,15,3,15,0.00
2013-11-10,67.7,65.0,61.5,64.7,61.1,57.3,97,88,71,30.24,30.11,17,4,17,0.02
2013-11-11,75.5,67.5,61.6,67.0,61.9,56.6,94,83,66,30.21,30.10,14,4,14,0.01
2013-11-12,72.1,62.4,53.9,61.6,56.5,47.3,96,82,60,30.51,30.16,29,12,29,0.01
2013-11-13,56.4,48.3,41.5,48.6,39.3,33.0,87,72,43,30.57,30.36,23,7,23,0.00
2013-11-14,64.8,54.0,41.7,60.1,50.1,37.9,95,87,77,30.36,30.00,10,2,10,0.00
2013-11-15,76.9,63.3,50.9,67.5,59.9,49.8,97,89,71,30.00,29.86,13,2,13,0.01
2013-11-16,77.2,71.6,65.3,73.8,69.8,63.8,97,94,89,29.90,29.76,20,6,20,0.00
2013-11-17,80.0,73.9,70.8,75.0,71.4,69.3,96,92,82,29.90,29.77,16,7,16,0.01
2013-11-18,77.8,72.1,68.2,73.8,69.8,61.5,97,92,78,30.03,29.89,15,5,15,0.01
2013-11-19,70.0,67.4,65.5,64.9,62.5,60.3,90,85,77,30.05,29.95,20,10,20,0.00
2013-11-20,78.8,72.2,66.8,74.0,69.1,63.6,94,90,84,29.95,29.83,16,7,16,0.00
2013-11-21,80.8,75.3,71.4,76.1,72.6,69.7,95,91,85,30.01,29.89,24,8,24,0.00
2013-11-22,75.6,56.7,40.0,74.2,55.2,38.3,96,95,89,30.28,29.99,24,9,24,0.37
2013-11-23,46.4,42.9,39.2,43.5,40.8,37.6,95,92,89,30.36,30.26,21,10,21,0.01
2013-11-24,46.7,44.4,41.1,44.4,41.5,38.1,96,90,81,30.37,30.25,20,9,20,0.22
2013-11-25,44.8,41.7,39.5,42.9,39.7,37.6,95,93,89,30.25,29.99,21,10,21,0.48
2013-11-26,49.9,43.4,40.1,41.2,39.0,37.3,95,85,69,30.32,30.07,30,12,30,0.11
2013-11-27,53.2,42.2,33.7,37.5,33.7,29.3,90,74,41,30.44,30.32,22,5,22,0.00
2013-11-28,58.6,46.8,33.4,49.3,40.5,30.8,93,80,53,30.41,30.31,14,4,14,0.00
2013-11-29,65.3,55.1,45.0,58.9,51.5,43.4,96,88,78,30.40,30.32,20,8,20,0.00
2013-11-30,72.5,60.4,47.8,63.4,56.1,46.2,95,86,70,30.32,30.17,15,3,15,0.00
2013-12-1,75.4,64.1,53.9,66.3,60.0,52.1,96,87,72,30.18,29.95,15,3,15,0.00
2013-12-2,76.4,65.3,58.5,67.9,61.9,56.5,96,89,74,29.95,29.71,12,4,12,0.01
2013-12-3,75.5,67.1,61.6,69.2,63.9,59.8,95,90,80,29.74,29.62,18,7,18,0.02
2013-12-4,76.8,69.4,65.8,71.8,66.9,64.0,95,92,84,29.78,29.67,20,8,20,0.00
2013-12-5,73.5,60.9,41.9,71.7,58.5,38.6,96,92,86,29.97,29.76,21,8,21,0.01
2013-12-6,46.6,39.9,34.5,39.9,35.8,30.5,92,85,76,30.34,29.96,22,12,22,0.00
2013-12-7,34.6,34.0,33.3,31.7,30.7,29.4,91,88,84,30.41,30.25,18,8,18,0.00
2013-12-8,47.2,40.4,33.3,44.0,37.6,31.1,92,90,83,30.25,30.02,12,5,12,0.00
2013-12-9,51.6,46.9,40.8,50.4,45.5,38.8,96,95,91,30.25,29.99,21,9,21,0.05
2013-12-10,47.0,41.6,35.6,38.8,34.2,31.1,94,76,54,30.44,30.25,21,8,21,0.00
2013-12-11,53.3,48.5,43.8,46.4,41.4,36.0,80,76,72,30.47,30.28,12,5,12,0.00
2013-12-12,57.4,49.1,43.7,42.9,41.1,38.8,88,74,53,30.53,30.30,17,7,17,0.00
2013-12-13,66.6,55.4,43.0,61.4,50.9,40.0,91,85,78,30.30,29.85,12,4,12,0.00
2013-12-14,71.0,55.8,40.5,56.0,48.2,37.5,91,78,40,30.30,29.86,25,8,25,0.00
2013-12-15,58.8,43.7,33.7,41.4,36.1,31.4,92,77,43,30.41,30.27,14,3,14,0.00
2013-12-16,63.1,46.8,30.2,48.6,40.0,28.7,95,80,44,30.33,30.21,14,2,14,0.01
2013-12-17,68.9,51.5,35.9,57.5,47.2,34.3,97,86,59,30.31,30.20,10,2,10,0.01
2013-12-18,70.1,57.4,40.1,59.9,52.2,38.5,97,84,61,30.26,30.06,14,4,14,0.01
2013-12-19,71.8,66.0,61.3,66.7,62.6,57.4,94,89,83,30.06,29.82,29,12,29,0.00
2013-12-20,74.0,67.7,62.4,69.9,65.5,60.6,96,93,87,29.84,29.63,25,13,25,0.00
2013-12-21,76.5,66.6,55.0,70.7,62.6,52.6,94,88,64,29.79,29.56,26,9,26,0.01
2013-12-22,71.6,59.9,46.0,58.2,49.6,38.1,94,72,39,30.31,29.77,21,9,21,0.00
2013-12-23,57.8,45.5,37.1,38.4,34.6,31.6,87,68,39,30.51,30.30,18,7,18,0.00
2013-12-24,59.4,47.6,31.9,50.8,42.5,29.6,92,83,66,30.50,30.23,14,4,14,0.00
2013-12-25,68.0,55.3,45.9,60.6,52.5,43.4,95,90,74,30.29,30.18,12,4,12,0.06
2013-12-26,55.7,52.9,50.2,52.7,49.9,48.1,94,90,78,30.34,30.26,16,7,16,0.07
2013-12-27,54.9,50.9,48.2,51.1,48.5,46.3,94,92,83,30.37,30.27,12,4,12,0.12
2013-12-28,62.0,50.4,43.8,46.8,43.7,34.8,94,80,38,30.28,30.02,10,2,10,0.00
2013-12-29,64.2,53.5,38.9,55.4,48.5,37.0,94,84,64,30.11,29.97,15,2,15,0.00
2013-12-30,57.0,43.4,40.1,52.9,38.2,35.8,88,82,75,30.37,30.07,21,10,21,0.03
2013-12-31,45.7,43.5,41.6,42.4,38.7,35.7,93,84,73,30.42,30.24,14,5,14,0.04
2014-1-1,56.5,50.9,44.5,55.1,48.7,42.4,95,92,88,30.24,29.99,9,4,9,0.01
2014-1-2,57.1,48.9,35.4,55.6,40.3,30.7,95,73,48,30.43,30.03,29,10,29,0.01